Location: Czekanka
(50.4925°N, 19.2643°E)
Time: 01:19:37
(UTC+00:00)

ADEOS II - Visible Passes

Search period start: 18 September 2024 00:00
Search period end: 28 September 2024 00:00
Orbit: 795 x 798 km, 98.7° (Epoch: 17 September)

Date Brightness Start Highest point End Pass type
(mag) Time Alt. Az. Time Alt. Az. Time Alt. Az.
18 Sep 3.7 00:15:43 10° NE 00:19:54 26° E 00:19:54 26° E visible
18 Sep 2.2 01:54:54 10° N 02:00:01 53° WNW 02:00:45 49° W visible
18 Sep 4.1 03:37:00 10° NNW 03:38:30 11° NW 03:40:00 10° WNW visible
18 Sep 4.4 23:48:57 10° NE 23:51:50 16° E 23:51:50 16° E visible
19 Sep 1.9 01:27:10 10° NNE 01:32:27 86° WNW 01:32:41 81° SW visible
19 Sep 3.7 03:08:01 10° NNW 03:11:19 17° NW 03:13:32 13° W visible
20 Sep 2.5 00:59:34 10° NNE 01:04:36 58° E 01:04:36 58° E visible
20 Sep 3.2 02:39:46 10° N 02:44:02 26° WNW 02:45:27 23° W visible
21 Sep 3.3 00:32:10 10° NNE 00:36:32 35° E 00:36:32 35° E visible
21 Sep 2.6 02:11:46 10° N 02:16:38 40° WNW 02:17:23 38° W visible
22 Sep 4.1 00:05:04 10° NE 00:08:27 21° E 00:08:27 21° E visible
22 Sep 2.0 01:43:56 10° N 01:49:08 64° WNW 01:49:18 64° W visible
22 Sep 4.0 03:25:21 10° NNW 03:27:47 13° NW 03:30:09 10° WNW visible
22 Sep 4.6 23:38:43 10° ENE 23:40:22 13° ENE 23:40:22 13° ENE visible
23 Sep 2.1 01:16:14 10° NNE 01:21:13 76° ENE 01:21:13 76° ENE visible
23 Sep 3.5 02:56:49 10° N 03:00:33 20° NW 03:02:04 18° WNW visible
24 Sep 2.9 00:48:42 10° NNE 00:53:08 45° ENE 00:53:08 45° ENE visible
24 Sep 2.9 02:28:40 10° N 02:33:13 31° WNW 02:33:58 29° WNW visible
25 Sep 3.8 00:21:24 10° NE 00:25:03 27° ENE 00:25:03 27° ENE visible
25 Sep 2.3 02:00:44 10° N 02:05:46 48° WNW 02:05:54 48° WNW visible
25 Sep 4.1 03:43:32 10° NW 03:44:11 10° NW 03:44:50 10° NW visible
25 Sep 4.4 23:54:29 10° NE 23:56:57 17° ENE 23:56:57 17° ENE visible
26 Sep 2.1 01:32:56 10° NNE 01:37:48 73° NNW 01:37:48 73° NNW visible
26 Sep 3.8 03:13:57 10° NNW 03:17:01 16° NW 03:18:39 14° WNW visible
27 Sep 2.6 01:05:18 10° NNE 01:09:43 56° ENE 01:09:43 56° ENE visible
27 Sep 3.3 02:45:37 10° N 02:49:44 24° WNW 02:50:34 23° WNW visible
